Ukiah, CA

12:53 PM PST on January 22, 2018 (GMT -0800)
Ukiah Municipal

Weather History for KUKI - June, 2014

Change the Weather History Date:

Saturday, June 21, 2014

  Actual Average Record
Temperature  
Mean Temperature 72 °F 69 °F  
Max Temperature 89 °F 85 °F 107 °F (1954)
Min Temperature 54 °F 54 °F 40 °F (1910)
Degree Days  
Heating Degree Days 0 1  
Month to date heating degree days 29  
Since 1 June heating degree days 29  
Since 1 July heating degree days 3115  
Cooling Degree Days 6 5  
Month to date cooling degree days 59  
Year to date cooling degree days 111  
Since 1 June cooling degree days 59  
Growing Degree Days 22 (Base 50)    
Moisture  
Dew Point 41 °F    
Average Humidity 41    
Maximum Humidity 72    
Minimum Humidity 9    
Precipitation  
Precipitation 0.00 in 0.02 in 0.19 in (1923)
Month to date precipitation 0.00 0.29  
Year to date precipitation 16.63 23.33  
Since 1 July precipitation 18.55  
Snow  
Snow 0.00 in - - ()
Month to date snowfall 0.0  
Since 1 June snowfall 0.0  
Since 1 July snowfall 0.0  
Snow Depth -    
Sea Level Pressure  
Sea Level Pressure 29.87 in    
Wind  
Wind Speed 4 mph (NNW)    
Max Wind Speed 15 mph    
Max Gust Speed 21 mph    
Visibility 10 miles    
Events      
T = Trace of Precipitation, MM = Missing Value Source: NWS Daily Summary

Daily Weather History Graph

Daily Weather History Graph

Search for Another Location

Airport or City:

Trip Planner

Search our weather history database for the weather conditions in past years. The results will help you decide how hot, cold, wet, or windy it might be!

Date:

Astronomy

Jun. 21, 2014 Rise Set
Actual Time 5:46 AM PDT 8:42 PM PDT
Civil Twilight 5:14 AM PDT 9:14 PM PDT
Nautical Twilight 4:33 AM PDT 9:55 PM PDT
Astronomical Twilight 3:47 AM PDT 10:42 PM PDT
Moon 2:00 AM PDT (6/21) 3:28 PM PDT (6/21)
Length of Visible Light 15h 59m
Length of Day
14h 55m
Waning Crescent, 29% of the Moon is Illuminated
Jun 21
Waning Crescent
Jun 27
New
Jul 5
First Quarter
Jul 12
Full
Jul 18
Last Quarter

Hourly Weather History & Observations

Time (PDT) Temp. Dew Point Humidity Pressure Visibility Wind Dir Wind Speed Gust Speed Precip Events Conditions
12:56 AM 64.0 °F 45.0 °F 50% 29.91 in 10.0 mi Calm Calm - N/A   Clear
1:56 AM 63.0 °F 45.0 °F 52% 29.91 in 10.0 mi West 4.6 mph - N/A   Clear
3:56 AM 62.1 °F 46.0 °F 56% 29.88 in 10.0 mi Calm Calm - N/A   Clear
4:56 AM 55.9 °F 46.9 °F 72% 29.88 in 10.0 mi Calm Calm - N/A   Clear
5:56 AM 55.9 °F 46.0 °F 69% 29.90 in 10.0 mi Calm Calm - N/A   Clear
6:56 AM 59.0 °F 46.9 °F 64% 29.90 in 10.0 mi Calm Calm - N/A   Clear
7:56 AM 63.0 °F 48.0 °F 58% 29.90 in 10.0 mi Calm Calm - N/A   Clear
8:56 AM 68.0 °F 48.0 °F 49% 29.88 in 10.0 mi NNW 5.8 mph - N/A   Clear
9:56 AM 72.0 °F 46.9 °F 41% 29.88 in 10.0 mi Variable 3.5 mph - N/A   Clear
10:56 AM 77.0 °F 46.0 °F 33% 29.86 in 10.0 mi Calm Calm - N/A   Clear
11:56 AM 81.0 °F 45.0 °F 28% 29.85 in 10.0 mi Variable 4.6 mph - N/A   Clear
12:56 PM 86.0 °F 32.0 °F 14% 29.83 in 10.0 mi North 12.7 mph - N/A   Clear
1:56 PM 88.0 °F 28.0 °F 12% 29.84 in 10.0 mi NW 10.4 mph - N/A   Clear
2:56 PM 88.0 °F 24.1 °F 10% 29.83 in 10.0 mi NNW 11.5 mph - N/A   Clear
3:56 PM 87.1 °F 21.0 °F 9% 29.83 in 10.0 mi NW 12.7 mph 17.3 mph N/A   Clear
4:56 PM 86.0 °F 28.0 °F 12% 29.83 in 10.0 mi NNW 13.8 mph 20.7 mph N/A   Clear
5:56 PM 82.9 °F 41.0 °F 23% 29.83 in 10.0 mi NNE 11.5 mph 19.6 mph N/A   Clear
6:56 PM 79.0 °F 45.0 °F 30% 29.85 in 10.0 mi North 8.1 mph 17.3 mph N/A   Clear
7:56 PM 75.0 °F 43.0 °F 32% 29.85 in 10.0 mi North 11.5 mph - N/A   Clear
8:56 PM 72.0 °F 41.0 °F 33% 29.85 in 10.0 mi NNE 5.8 mph - N/A   Clear
9:56 PM 69.1 °F 39.9 °F 35% 29.86 in 10.0 mi Variable 3.5 mph - N/A   Clear
10:56 PM 64.0 °F 42.1 °F 45% 29.87 in 10.0 mi Calm Calm - N/A   Clear
11:56 PM 60.1 °F 43.0 °F 53% 29.88 in 10.0 mi Calm Calm - N/A   Clear